Flag for Azerbaijan Weather past 2 weeks in Sumqayit, Azerbaijan

Now
79 °F

Clear.


Feels Like: 81 °F
Forecast: 77 / 86 °F
Wind: 15 mph from North

Location: Baku / Bine Airport

Current Time: Jul 8, 2015 at 1:51:57 AM

Latest Report: Jul 8, 2015 at 1:30 AM


Visibility: 10 mi

Pressure: 29.83 "Hg

Humidity: 74%

Dew point: 70 °F

Location of SumqayitLocation

Historic Weather in Sumqayit — Graph

°F

Sumqayit temperature yesterday

Maximum temperature yesterday: 88 °F (at 5:00 PM)
Minimum temperature yesterday: 79 °F (at 1:30 AM)
Average temperature yesterday: 82 °F

Past Weeks' High & Low Weather Summary

 TemperatureHumidityPressure
High102 °F (Jun 24, 2:30 PM)100% (Jun 24, 5:30 AM)30.04 "Hg (Jun 24, 5:30 AM)
Low68 °F (Jun 24, 6:00 AM)18% (Jun 24, 5:30 PM)29.53 "Hg (Jun 26, 1:00 PM)
Average83 °F62%29.78 "Hg
* Reported Jun 23 1:00 AM — Jul 8 1:00 AM, Sumqayit, Weather by CustomWeather, © 2015

Note: Actual official high and low records may vary slightly from our data, if they occured in-between our weather recording intervals... More about our weather records

Advertising

Sumqayit weather history for previous 24 hours

 ConditionsComfort  
Time TempWeatherWind HumidityBarometerVisibility
1:00 AM
Wed, Jul 8
79 °FClear.15 mph74%29.83 "Hg10 mi
12:30 AM79 °FClear.16 mph74%29.83 "Hg10 mi
12:00 AM79 °FClear.16 mph74%29.83 "Hg10 mi
11:30 PM
Tue, Jul 7
79 °FClear.17 mph74%29.83 "Hg10 mi
11:00 PM79 °FClear.15 mph70%29.83 "Hg10 mi
10:30 PM79 °FClear.15 mph74%29.83 "Hg10 mi
10:00 PM79 °FSunny.17 mph74%29.83 "Hg10 mi
9:30 PM79 °FSunny.20 mph74%29.80 "Hg10 mi
9:00 PM81 °FSunny.21 mph70%29.80 "Hg10 mi
8:30 PM81 °FSunny.23 mph70%29.80 "Hg10 mi
8:00 PM82 °FSunny.23 mph66%29.80 "Hg10 mi
7:30 PM82 °FSunny.24 mph62%29.80 "Hg10 mi
7:00 PM82 °FSunny.23 mph66%29.80 "Hg10 mi
6:30 PM84 °FSunny.23 mph62%29.80 "Hg10 mi
6:00 PM84 °FSunny.23 mph58%29.80 "Hg10 mi
5:30 PM86 °FSunny.23 mph49%29.80 "Hg10 mi
5:00 PM88 °FSunny.22 mph49%29.80 "Hg10 mi
4:30 PM86 °FPartly sunny.23 mph55%29.83 "HgN/A
4:00 PM82 °FOvercast.24 mph62%29.83 "HgN/A
3:30 PM82 °FOvercast.23 mph58%29.83 "HgN/A
3:00 PM84 °FOvercast.25 mph58%29.83 "HgN/A
2:30 PM82 °FPartly sunny.32 mph62%29.83 "HgN/A
2:00 PM84 °FSunny.25 mph58%29.83 "Hg10 mi
1:30 PM84 °FSunny.23 mph62%29.83 "Hg10 mi
1:00 PM86 °FSunny.23 mph59%29.83 "Hg10 mi
12:30 PM86 °FSunny.23 mph59%29.83 "Hg10 mi
12:00 PM86 °FSunny.30 mph59%29.83 "Hg10 mi
11:30 AM84 °FScattered clouds.26 mph66%29.83 "HgN/A
11:00 AM84 °FScattered clouds.29 mph66%29.83 "HgN/A
10:30 AM84 °FPartly sunny.25 mph66%29.83 "HgN/A
10:00 AM82 °FSunny.24 mph74%29.83 "Hg10 mi
9:30 AM84 °FSunny.24 mph66%29.83 "Hg10 mi
9:00 AM82 °FSunny.24 mph70%29.83 "Hg10 mi
8:30 AM82 °FSunny.25 mph70%29.80 "Hg10 mi
8:00 AM82 °FSunny.24 mph66%29.80 "Hg10 mi
7:30 AM82 °FSunny.21 mph58%29.80 "Hg10 mi
7:00 AM81 °FClear.18 mph58%29.80 "Hg10 mi
6:30 AM81 °FClear.17 mph58%29.80 "Hg10 mi
6:00 AM81 °FClear.16 mph58%29.77 "Hg10 mi
5:30 AM81 °FClear.15 mph54%29.77 "Hg10 mi
5:00 AM81 °FClear.15 mph54%29.77 "Hg10 mi
4:30 AM81 °FClear.16 mph51%29.77 "Hg10 mi
4:00 AM81 °FClear.17 mph51%29.77 "Hg10 mi
3:30 AM82 °FClear.17 mph45%29.77 "Hg10 mi
3:00 AM81 °FClear.16 mph48%29.77 "Hg10 mi
2:00 AM81 °FClear.16 mph54%29.77 "Hg10 mi
1:30 AM79 °FClear.15 mph65%29.77 "Hg10 mi
1:00 AM81 °FClear.13 mph62%29.77 "Hg10 mi
Weather by CustomWeather, © 2015

See weather overviewHow to use our weather pages